Location: Diebersbach
(48.5163°N, 8.0558°E)
Time: 09:33:16
(UTC+00:00)

Cosmos 2208 Rocket - Pass Details

Date: 20 June 2021
Orbit: 754 x 805 km, 74.0° (Epoch: 27 July)

Event Time Altitude Azimuth Distance (km) Brightness Sun altitude
Exits shadow 01:16:34 19° 186° (S) 1,810 5.4 -14.2°
Maximum altitude 01:20:24 66° 109° (ESE) 876 4.3 -13.9°
Drops below altitude 10° 01:25:49 10° 28° (NNE) 2,397 8.1 -13.5°
Sets 01:28:15 0° 26° (NNE) 3,332 9.4 -13.3°
